Temp
88 86 83 84 84 84 84 83 83 83 83 83 84 84 84 84 84 84 84 84 84 84 84 84 84 84 84 84 84 84 84 84 84 84 84 84 84 84 84 84 85 85 83
92 88 83 84 84 84 84 83 83 83 83 84 84 84 84 84 84 84 84 84 84 84 85 84 85 84 84 84 84 84 84 84 84 84 85 85 84 84 84 85 84 83 83
91 88 87 83 84 84 83 83 83 84 84 84 84 84 84 84 84 84 85 85 85 85 85 85 84 84 84 84 84 84 84 84 84 85 86 85 84 84 84 84 83 83 83
93 90 87 83 83 84 83 83 84 84 84 84 84 84 84 84 85 85 85 84 85 85 85 85 84 84 84 84 84 84 84 84 84 81 82 87 87 84 84 83 83 83 83
93 93 85 83 83 84 84 84 84 84 84 84 84 84 84 85 85 85 85 85 85 85 85 84 85 84 84 84 83 83 84 84 79 80 73 82 82 84 83 83 83 83 84
95 91 84 83 84 84 84 84 84 84 84 84 84 84 85 85 85 85 85 85 85 85 84 84 84 84 84 84 84 83 83 83 83 74 75 84 81 84 84 83 83 83 83
96 88 86 83 84 84 84 84 84 84 84 84 85 85 85 85 85 85 85 85 85 85 85 85 84 85 84 83 84 83 83 84 83 82 82 82 81 83 84 83 83 83 82
92 91 87 84 84 84 84 84 84 84 84 84 85 85 85 85 85 84 85 85 85 85 85 85 85 84 84 84 84 84 84 84 88 80 73 71 80 83 83 83 83 82 82
94 92 88 87 85 84 84 84 84 84 84 84 84 84 84 84 84 84 84 85 85 85 85 85 85 84 84 84 84 84 84 84 83 82 75 71 81 83 83 83 83 83 82
94 91 87 86 86 85 86 84 84 84 84 84 84 84 84 84 85 81 82 83 84 84 84 85 84 85 84 84 84 84 84 84 83 84 85 75 81 83 84 83 83 83 82
95 94 93 90 88 87 88 86 84 84 84 84 84 84 83 82 76 76 78 82 84 85 85 85 84 84 84 84 84 84 84 82 83 85 84 80 81 83 84 83 83 82 82
94 95 96 94 92 90 94 85 84 86 86 84 83 81 82 75 72 74 76 81 84 84 84 85 84 84 84 85 83 84 83 83 83 83 78 80 81 83 84 83 83 82 82
94 96 94 94 92 92 89 86 87 88 87 86 83 81 84 79 75 74 72 81 81 83 83 85 84 84 85 84 78 78 83 85 86 79 76 79 79 83 84 83 83 82 82
93 94 95 95 89 91 93 90 90 90 88 89 84 82 78 81 74 73 74 77 79 78 78 80 78 80 83 83 80 78 82 82 85 80 81 80 80 82 83 83 83 83 83
92 95 93 92 87 90 91 88 87 87 88 83 86 81 76 80 79 78 76 80 77 75 76 78 78 78 80 83 80 82 84 84 84 83 81 82 81 81 83 83 83 83 83
94 94 97 92 88 90 89 89 86 85 76 76 78 85 83 82 76 79 76 80 79 76 76 76 78 78 79 83 83 83 83 84 84 83 81 80 81 81 82 83 83 83 83
96 96 95 94 90 88 88 88 88 91 88 75 81 85 84 84 83 79 77 75 76 78 78 78 76 76 78 83 82 83 85 82 83 83 82 83 81 81 81 82 82 82 83
97 94 94 97 91 89 87 86 89 89 86 84 87 87 87 84 85 81 75 75 75 75 75 75 76 75 75 77 80 80 82 84 85 84 83 83 81 81 81 81 81 81 82
96 94 93 94 94 88 88 88 88 87 83 86 90 87 87 81 80 82 82 78 73 74 75 75 76 76 72 74 78 83 81 80 83 88 84 84 83 82 82 81 80 81 82
98 94 92 93 91 90 88 87 88 89 90 86 85 87 87 81 76 81 82 81 78 77 76 77 77 78 76 74 81 81 81 81 82 81 85 87 86 84 86 83 80 80 81
97 86 91 90 87 88 88 85 85 85 87 87 86 85 85 82 76 79 79 82 82 81 78 79 79 79 77 77 74 72 73 80 83 82 81 85 84 87 81 84 81 81 81
94 89 89 89 87 87 88 87 88 86 88 85 85 88 87 81 83 83 81 84 80 82 80 81 79 73 76 79 73 72 67 70 77 81 80 84 84 86 87 86 83 83 84
94 91 88 89 87 86 87 87 85 87 86 83 81 82 85 85 85 84 83 81 81 82 78 80 80 79 75 77 78 75 70 67 70 71 72 75 83 81 85 82 81 83 84
94 92 89 89 86 85 85 83 82 80 83 85 85 85 86 79 77 79 83 81 80 82 79 82 84 80 78 73 77 83 81 78 69 67 69 71 78 78 83 83 86 86 86
100 97 92 90 87 84 83 80 78 79 83 86 85 85 82 81 80 79 82 81 81 82 81 79 79 80 80 78 75 75 76 75 75 70 68 70 77 80 80 82 81 83 86
96 97 94 90 88 87 86 84 81 79 77 76 76 71 74 84 84 85 86 82 83 83 81 79 80 81 80 79 79 80 76 76 73 72 70 72 72 76 81 79 80 79 81
MSLP
1011.67 1012.51 1013.28 1013.78 1014.17 1014.62 1015.00 1015.42 1015.75 1015.85 1015.98 1016.10 1016.25 1016.44 1016.60 1016.76 1016.92 1017.07 1017.22 1017.33 1017.37 1017.43 1017.44 1017.51 1017.57 1017.59 1017.63 1017.76 1017.89 1018.09 1018.21 1018.29 1018.37 1018.48 1018.59 1018.71 1018.80 1018.84 1018.91 1018.92 1018.92 1019.45 1019.75
1011.07 1012.37 1013.23 1013.67 1014.13 1014.62 1015.05 1015.49 1015.86 1016.10 1016.26 1016.44 1016.63 1016.76 1016.94 1017.09 1017.26 1017.44 1017.56 1017.63 1017.72 1017.80 1017.78 1017.85 1017.86 1017.94 1018.01 1018.15 1018.43 1018.59 1018.60 1018.59 1018.57 1018.61 1018.83 1019.04 1019.20 1019.14 1019.19 1019.19 1019.45 1019.83 1020.03
1011.19 1012.37 1013.04 1013.66 1014.18 1014.68 1015.11 1015.63 1015.95 1016.24 1016.50 1016.68 1016.83 1016.98 1017.10 1017.25 1017.41 1017.52 1017.69 1017.93 1018.04 1018.12 1018.15 1018.17 1018.22 1018.24 1018.30 1018.50 1018.75 1018.82 1018.78 1018.84 1018.67 1018.66 1018.53 1019.08 1019.56 1019.71 1019.64 1019.68 1019.86 1019.99 1020.30
1010.99 1012.17 1012.97 1013.69 1014.23 1014.77 1015.17 1015.60 1015.99 1016.35 1016.62 1016.79 1016.95 1017.17 1017.35 1017.50 1017.62 1017.66 1017.80 1017.97 1018.10 1018.25 1018.40 1018.46 1018.57 1018.56 1018.59 1018.79 1019.01 1018.96 1019.04 1018.97 1019.55 1020.07 1019.46 1018.98 1019.54 1020.24 1020.16 1020.12 1020.03 1020.17 1020.46
1010.97 1011.85 1013.19 1013.80 1014.22 1014.81 1015.34 1015.68 1016.06 1016.38 1016.64 1016.81 1017.09 1017.38 1017.57 1017.75 1017.87 1018.01 1018.13 1018.20 1018.19 1018.31 1018.58 1018.80 1018.81 1018.79 1018.80 1018.94 1019.12 1019.14 1019.25 1019.33 1020.45 1019.43 1020.50 1019.52 1019.95 1020.54 1020.49 1020.50 1020.34 1020.39 1020.50
1010.77 1012.05 1013.59 1013.96 1014.40 1014.84 1015.41 1015.82 1016.12 1016.38 1016.67 1016.94 1017.26 1017.50 1017.67 1017.91 1018.06 1018.24 1018.40 1018.59 1018.58 1018.60 1018.69 1018.91 1019.02 1018.98 1018.89 1019.09 1019.33 1019.42 1019.43 1019.67 1020.58 1020.85 1020.35 1019.37 1020.00 1020.98 1020.81 1020.77 1020.63 1020.62 1020.88
1010.47 1012.37 1013.61 1014.16 1014.58 1014.98 1015.43 1015.87 1016.18 1016.45 1016.75 1017.17 1017.38 1017.51 1017.82 1018.09 1018.27 1018.44 1018.64 1018.70 1018.79 1018.89 1018.87 1018.87 1019.10 1019.09 1019.06 1019.06 1019.45 1019.63 1019.67 1019.86 1019.57 1019.70 1019.71 1019.86 1020.51 1020.89 1021.22 1021.00 1020.91 1020.83 1021.05
1010.73 1012.06 1013.41 1014.30 1014.71 1015.12 1015.45 1015.87 1016.23 1016.56 1016.94 1017.27 1017.35 1017.61 1017.95 1018.27 1018.50 1018.68 1018.83 1018.86 1018.81 1018.88 1019.01 1018.94 1019.03 1019.17 1019.18 1019.23 1019.48 1019.70 1019.83 1019.87 1019.27 1020.13 1020.41 1020.86 1020.80 1020.98 1021.34 1021.07 1021.13 1021.07 1021.17
1010.34 1011.74 1013.10 1013.96 1014.69 1015.15 1015.47 1015.79 1016.19 1016.62 1017.07 1017.19 1017.37 1017.89 1018.00 1018.32 1018.57 1018.73 1018.82 1018.84 1018.78 1018.80 1018.94 1019.00 1019.03 1019.15 1019.22 1019.13 1019.31 1019.72 1019.88 1019.96 1019.69 1019.98 1020.26 1020.33 1020.84 1020.80 1021.27 1021.06 1021.20 1021.19 1021.30
1010.51 1011.94 1012.76 1013.69 1014.37 1014.89 1015.32 1015.69 1016.09 1016.53 1016.93 1017.11 1017.53 1017.71 1018.01 1018.20 1018.25 1018.59 1018.77 1018.74 1018.69 1018.63 1018.81 1018.88 1018.87 1018.88 1019.01 1019.06 1019.17 1019.35 1019.60 1019.89 1019.80 1019.39 1019.74 1020.93 1020.43 1020.61 1021.00 1020.97 1021.11 1021.15 1021.41
1010.22 1011.26 1012.24 1013.19 1013.94 1014.37 1014.62 1015.32 1015.90 1016.37 1016.76 1016.95 1017.42 1017.51 1017.72 1018.03 1018.50 1018.81 1018.61 1018.52 1018.45 1018.34 1018.47 1018.65 1018.59 1018.59 1018.72 1018.75 1018.90 1019.20 1019.37 1019.53 1019.43 1019.40 1019.37 1020.07 1020.41 1020.69 1020.62 1020.80 1020.86 1021.10 1021.45
1010.03 1010.62 1011.29 1012.29 1013.04 1013.72 1013.55 1014.47 1015.39 1015.88 1016.34 1016.66 1017.02 1017.18 1017.49 1018.16 1018.51 1018.44 1018.55 1018.43 1018.20 1018.16 1018.24 1018.41 1018.35 1018.36 1018.52 1018.39 1018.64 1018.93 1019.17 1019.18 1019.05 1019.20 1019.83 1019.81 1020.33 1020.48 1020.33 1020.46 1020.64 1021.01 1021.38
1009.96 1010.16 1010.70 1011.53 1012.25 1012.97 1013.26 1014.18 1014.73 1015.20 1015.57 1015.95 1016.44 1016.66 1016.83 1017.24 1016.71 1018.43 1018.75 1018.09 1017.94 1017.86 1017.98 1017.99 1018.02 1017.98 1017.92 1017.96 1018.16 1018.48 1018.46 1018.34 1018.21 1018.81 1019.60 1019.43 1019.49 1020.13 1020.00 1020.06 1020.43 1020.73 1021.07
1009.81 1010.11 1010.52 1011.26 1012.11 1012.47 1012.74 1013.36 1013.64 1014.11 1014.74 1014.96 1015.89 1016.11 1016.30 1016.39 1017.75 1018.13 1017.82 1017.55 1017.56 1017.92 1017.90 1017.73 1017.56 1017.45 1017.51 1017.61 1018.03 1018.03 1018.10 1017.86 1017.60 1017.98 1018.42 1018.99 1019.20 1019.57 1019.66 1019.88 1020.17 1020.49 1020.72
1009.68 1010.09 1010.78 1011.36 1011.92 1012.32 1012.72 1012.94 1013.26 1013.56 1014.20 1014.85 1015.18 1015.61 1015.77 1015.91 1016.06 1016.43 1016.89 1016.98 1017.08 1017.76 1017.71 1017.42 1017.38 1017.46 1017.36 1017.33 1017.39 1017.63 1017.43 1017.53 1017.64 1017.77 1018.23 1018.68 1018.95 1019.17 1019.35 1019.52 1019.81 1020.20 1020.44
1009.28 1010.04 1010.46 1011.37 1011.77 1012.20 1012.73 1013.15 1013.45 1013.72 1014.89 1014.58 1014.96 1014.98 1015.49 1015.66 1015.98 1016.20 1016.73 1016.79 1016.87 1017.18 1017.28 1017.33 1017.31 1017.26 1017.10 1016.90 1016.90 1016.95 1017.07 1017.18 1017.20 1017.55 1017.95 1018.17 1018.68 1018.90 1019.09 1019.19 1019.54 1019.80 1020.07
1008.81 1009.48 1010.24 1010.88 1011.62 1012.15 1012.73 1013.24 1013.23 1013.21 1013.53 1014.74 1014.55 1014.55 1014.92 1014.97 1015.18 1015.75 1016.40 1016.61 1016.72 1016.82 1017.10 1017.18 1017.22 1016.95 1017.17 1016.65 1016.87 1016.77 1016.58 1016.98 1017.01 1017.17 1017.59 1017.80 1018.11 1018.45 1018.79 1019.04 1019.22 1019.46 1019.65
1008.01 1008.89 1009.80 1010.33 1010.93 1011.72 1012.28 1012.90 1013.06 1013.21 1013.25 1013.56 1013.53 1013.93 1014.12 1014.39 1014.65 1015.18 1015.76 1015.89 1016.36 1016.59 1016.98 1017.01 1017.08 1017.24 1017.16 1016.94 1016.63 1016.62 1016.51 1016.24 1016.57 1016.83 1017.01 1017.34 1017.73 1018.08 1018.51 1018.61 1018.84 1019.02 1019.27
1007.29 1008.10 1009.05 1009.76 1010.37 1011.17 1011.75 1012.25 1012.60 1012.65 1013.05 1013.12 1013.03 1013.34 1013.49 1014.23 1014.88 1015.19 1014.89 1015.26 1015.89 1016.20 1016.55 1016.67 1016.76 1016.87 1017.26 1016.96 1016.71 1016.38 1016.34 1016.43 1016.28 1016.26 1016.68 1016.87 1017.21 1017.33 1017.71 1018.18 1018.33 1018.64 1018.78
1007.33 1006.93 1007.69 1009.23 1010.10 1010.93 1011.53 1011.97 1012.23 1012.41 1012.46 1012.56 1012.60 1012.73 1013.29 1014.61 1015.08 1015.23 1014.97 1014.39 1015.20 1015.67 1015.96 1016.25 1016.37 1016.41 1016.56 1016.78 1016.37 1015.94 1016.12 1016.09 1016.03 1016.05 1016.03 1016.07 1016.36 1016.77 1016.76 1017.13 1017.88 1018.03 1018.13
1005.65 1007.68 1007.43 1008.35 1009.89 1010.79 1011.29 1011.83 1012.10 1012.05 1012.11 1012.21 1012.28 1012.09 1012.54 1013.97 1014.08 1014.85 1014.81 1014.04 1014.04 1014.53 1015.13 1015.44 1015.56 1015.69 1015.91 1016.13 1016.33 1016.31 1016.55 1016.22 1015.80 1015.73 1015.66 1015.70 1015.70 1015.62 1016.28 1016.31 1016.74 1017.38 1017.27
1006.63 1007.25 1007.04 1008.36 1009.71 1010.60 1011.07 1011.27 1011.26 1011.50 1011.58 1011.70 1011.64 1011.44 1011.70 1012.67 1013.60 1014.10 1014.07 1013.72 1013.87 1013.86 1014.19 1014.69 1014.91 1015.48 1015.61 1015.55 1015.98 1016.46 1016.80 1016.54 1015.70 1015.27 1015.25 1015.25 1015.16 1015.03 1014.96 1015.53 1015.75 1015.93 1015.79
1005.63 1006.29 1007.21 1008.25 1009.29 1010.27 1010.81 1011.14 1011.07 1011.20 1011.19 1011.36 1011.43 1011.39 1011.43 1011.16 1011.87 1011.98 1012.75 1013.59 1013.69 1013.73 1013.83 1014.11 1014.51 1014.74 1014.98 1014.95 1015.19 1015.37 1015.69 1015.80 1015.82 1016.34 1016.25 1016.22 1015.48 1014.87 1014.86 1014.69 1015.52 1015.69 1015.19
1005.21 1006.06 1007.14 1008.23 1009.12 1010.12 1010.99 1011.45 1011.52 1011.14 1011.09 1010.86 1010.72 1010.81 1010.61 1011.11 1010.53 1011.52 1011.93 1012.68 1013.57 1013.66 1013.52 1013.78 1013.93 1014.14 1014.62 1014.98 1014.84 1014.50 1014.55 1014.96 1015.62 1016.83 1016.24 1016.10 1015.57 1014.87 1014.84 1014.41 1014.10 1014.44 1014.41
1005.20 1006.03 1007.11 1008.06 1009.05 1009.97 1010.80 1011.07 1011.13 1011.41 1011.22 1010.73 1010.35 1010.42 1010.69 1010.94 1011.03 1011.02 1011.42 1012.16 1013.21 1013.24 1013.16 1013.44 1013.77 1013.74 1014.07 1014.36 1014.35 1014.32 1014.37 1014.67 1014.82 1015.49 1016.17 1015.80 1014.74 1014.36 1014.33 1014.02 1013.93 1014.02 1014.15
1005.98 1006.47 1007.24 1008.13 1008.99 1009.78 1010.24 1010.65 1010.86 1010.89 1010.96 1010.90 1010.89 1011.71 1012.27 1011.45 1011.29 1011.40 1011.38 1012.25 1012.29 1012.46 1012.67 1013.10 1013.29 1013.52 1013.62 1013.73 1013.75 1013.78 1014.13 1014.32 1014.33 1014.62 1015.01 1014.81 1014.70 1014.26 1013.89 1013.89 1013.82 1013.91 1013.97
Wind_Speed
16 17 14 13 14 16 14 14 12 12 12 13 14 13 14 14 14 13 12 10 10 10 11 12 12 12 13 13 13 14 15 15 16 16 16 16 12 9 10 14 18 15 16
22 18 14 14 16 17 15 14 13 11 12 13 13 13 14 13 13 12 11 11 12 11 12 12 11 11 12 13 13 13 12 11 13 16 16 15 16 17 17 18 17 14 16
21 18 16 15 17 17 15 14 13 11 12 12 13 13 13 12 12 11 11 10 11 11 12 12 10 10 10 11 11 10 8 8 11 15 19 10 9 16 17 18 16 16 15
21 18 17 16 18 15 15 15 13 12 12 12 12 12 12 11 11 10 10 10 10 11 10 10 11 11 11 11 10 7 6 6 5 13 7 11 11 13 15 15 15 15 15
20 17 17 17 17 16 14 14 13 13 12 11 12 12 11 11 10 9 9 9 9 11 11 8 9 10 9 9 8 6 3 4 20 8 9 7 8 10 12 13 12 12 15
20 20 17 17 16 16 14 13 13 13 12 11 11 11 10 10 9 8 8 8 7 7 8 9 8 9 11 8 6 4 3 2 13 14 12 11 10 9 9 14 13 14 13
21 20 16 16 15 14 14 13 13 13 12 11 10 9 9 8 7 6 5 6 7 6 7 9 7 6 8 6 5 3 2 4 6 4 11 8 9 9 9 11 12 13 12
22 20 18 15 14 13 13 12 11 11 11 11 10 9 7 5 5 3 2 3 5 6 6 6 7 8 7 5 4 5 4 6 9 11 14 8 8 10 9 10 10 10 10
19 19 14 14 12 13 12 12 12 11 11 10 10 8 7 5 2 3 5 6 6 7 6 7 8 8 8 8 8 7 6 7 7 4 14 9 12 12 10 10 10 9 9
17 18 14 12 11 10 11 12 12 11 11 10 9 8 7 7 6 9 12 9 8 8 7 8 8 9 9 10 10 10 10 8 6 8 7 12 16 15 13 11 11 10 9
16 17 16 15 13 10 11 12 11 12 11 11 9 9 7 3 8 5 15 17 10 11 10 11 10 11 11 13 13 12 11 4 6 5 1 16 16 17 14 12 11 10 10
10 14 16 15 14 12 11 13 10 10 8 8 7 7 5 9 8 14 16 18 12 10 10 11 11 11 11 7 6 11 5 8 6 4 4 13 8 14 16 13 12 12 12
11 8 12 12 14 12 4 9 6 6 7 8 10 9 9 8 14 10 6 7 6 10 5 9 8 6 9 7 5 2 7 10 7 4 6 14 17 15 15 15 13 14 15
11 9 8 11 10 9 6 8 9 7 6 3 8 9 5 4 12 12 8 5 4 2 5 6 2 4 6 4 9 8 11 7 3 3 7 16 18 17 17 16 15 15 15
12 8 11 7 7 5 2 1 3 4 5 4 5 7 2 5 2 4 4 5 4 6 4 4 4 5 4 7 6 10 7 7 5 4 4 17 18 17 16 17 16 17 16
14 11 9 12 10 8 5 2 2 5 5 3 4 6 8 3 5 5 4 3 3 4 3 3 4 5 5 4 4 5 5 9 6 5 5 9 15 15 16 18 18 17 18
13 14 12 10 13 9 6 4 4 3 6 4 7 7 8 8 5 9 5 2 1 1 3 4 4 5 4 6 7 6 6 7 5 6 7 6 9 17 17 17 18 17 17
14 14 12 12 8 12 10 8 6 7 5 6 4 5 8 7 6 6 6 4 4 1 4 4 5 4 5 5 4 5 4 5 10 8 6 7 7 7 13 18 19 19 19
13 12 13 11 13 13 8 8 9 6 5 6 6 4 7 4 3 3 4 5 8 5 7 5 5 4 4 6 6 5 4 4 5 7 9 7 9 9 7 16 20 20 23
13 17 15 9 6 8 7 6 4 5 5 4 4 6 6 6 4 5 6 6 10 6 6 5 5 4 5 7 7 3 4 4 4 5 9 8 9 12 11 11 11 13 23
12 5 12 9 9 6 6 7 7 7 6 5 6 7 7 11 12 12 6 5 6 6 7 6 5 5 3 5 4 5 5 6 6 5 4 8 7 7 11 10 10 9 10
12 18 11 11 11 9 7 7 7 7 7 5 5 6 7 7 11 10 6 6 7 4 6 6 6 3 2 5 4 3 2 4 5 4 3 6 9 9 7 10 13 16 11
14 12 14 11 12 11 9 7 4 4 4 2 3 3 7 12 10 8 6 6 3 2 4 5 6 6 4 3 2 4 2 4 2 4 7 7 10 3 5 9 12 12 9
14 12 15 12 12 9 9 9 9 7 8 6 7 8 8 6 9 4 5 7 6 4 4 5 6 4 4 5 4 4 4 3 3 1 2 10 10 5 12 6 7 12 11
4 8 10 11 11 8 8 7 7 9 8 6 3 6 8 9 8 11 13 9 9 6 5 5 7 5 5 5 4 4 3 4 5 5 4 6 2 4 5 5 3 3 3
4 4 7 8 5 7 8 10 10 11 10 11 6 4 11 4 8 7 7 9 8 6 6 5 5 5 6 4 3 1 3 3 3 3 4 3 4 4 5 3 3 3 5
Wind_Direction
145 141 144 149 151 149 145 138 126 111 102 97 93 97 95 96 94 96 100 101 95 89 87 105 100 92 90 89 86 90 88 90 94 94 94 90 82 84 107 110 102 93 90
135 142 143 147 152 149 148 146 136 117 107 101 100 99 102 102 101 101 95 93 99 98 92 102 103 103 102 99 95 96 102 110 114 114 108 92 85 82 87 84 89 92 93
134 137 142 145 143 149 148 152 145 134 118 112 106 102 109 112 109 111 107 104 99 94 98 98 103 112 111 106 105 110 122 125 139 147 140 101 90 88 95 97 99 96 94
135 148 140 141 143 146 148 153 151 144 130 121 115 112 109 112 115 113 106 112 113 107 102 111 117 122 121 120 117 120 124 145 112 6 302 118 99 97 98 104 105 104 101
136 137 130 139 142 146 149 150 149 144 137 132 125 120 116 115 114 110 108 106 105 114 120 122 125 127 128 129 118 123 160 159 91 3 301 99 96 108 110 113 111 118 97
144 121 134 135 142 145 147 148 147 145 144 142 136 130 130 127 124 119 119 114 112 108 114 127 145 150 140 132 134 147 240 304 145 162 242 82 96 120 129 95 100 103 104
133 130 136 138 142 144 148 152 154 151 152 147 146 147 145 144 142 136 135 140 144 137 132 131 146 142 143 135 161 171 252 295 290 302 54 82 118 128 119 117 111 112 115
126 137 140 141 142 146 151 158 163 162 158 155 163 161 152 150 148 156 193 196 177 169 166 149 151 140 140 158 186 219 233 273 300 106 46 357 136 140 145 132 129 126 122
139 131 143 151 154 154 156 160 167 169 165 174 178 171 179 172 188 249 262 237 224 199 203 196 190 200 214 226 227 214 232 268 299 123 140 216 185 151 160 146 147 144 141
127 136 147 152 162 170 171 175 180 181 180 191 190 193 194 196 201 23 307 256 238 233 229 233 226 224 221 226 234 223 228 239 267 282 162 205 168 158 168 161 161 158 160
141 144 155 163 170 184 174 175 191 196 197 200 200 207 196 213 106 189 248 262 231 227 226 233 230 228 227 231 228 216 225 224 231 234 220 152 164 169 168 175 173 174 175
166 157 160 171 169 182 196 152 182 188 194 194 194 178 212 114 105 260 248 241 235 226 231 231 223 219 222 229 206 223 224 231 222 216 113 143 170 178 173 184 188 185 189
176 184 153 169 156 175 169 156 175 194 195 191 180 183 202 184 171 232 244 228 216 213 232 212 207 215 220 220 136 224 220 225 216 116 158 172 192 208 188 187 197 200 198
170 190 152 149 149 181 172 173 177 189 189 167 171 189 193 215 157 190 208 222 205 187 235 245 196 233 261 152 168 203 218 232 260 145 160 184 188 200 197 198 201 208 210
160 204 157 138 139 159 309 53 73 136 150 96 178 190 140 224 208 161 160 193 175 181 225 254 207 222 235 239 197 211 215 227 197 171 154 188 190 194 197 201 207 211 216
162 188 178 163 153 168 194 343 354 153 159 83 289 215 196 211 198 198 172 247 104 190 194 237 264 233 228 216 236 249 233 210 201 171 178 186 190 195 202 201 209 213 214
170 173 192 185 158 163 191 205 225 266 146 143 214 224 177 220 162 153 141 180 285 36 286 221 231 269 251 232 218 237 244 185 190 222 166 187 194 199 204 208 210 214 217
184 169 186 190 171 167 175 188 216 221 175 202 180 204 196 180 180 149 158 175 91 305 237 252 216 236 247 262 230 225 239 212 193 200 192 188 186 199 213 212 214 213 216
177 165 172 197 189 168 176 178 212 200 183 195 194 204 212 169 311 182 167 172 172 198 215 218 231 183 196 267 256 236 218 231 211 194 209 201 195 188 198 217 212 217 216
183 171 166 181 173 160 170 185 221 237 212 188 212 192 208 140 81 232 227 180 180 200 211 209 210 214 187 208 249 201 213 229 184 202 219 207 201 205 207 200 206 213 217
198 88 157 165 154 170 193 188 206 232 224 229 193 220 200 146 164 230 223 208 195 181 187 205 183 213 175 214 226 31 337 317 269 215 221 216 223 220 203 205 189 215 211
187 175 146 176 160 181 218 219 205 202 224 207 203 222 180 205 191 188 196 236 200 148 183 196 191 130 244 221 188 150 201 275 265 275 256 221 212 227 211 200 195 207 202
171 160 166 181 168 181 211 229 221 246 235 156 194 214 200 208 202 181 187 255 300 295 196 192 201 205 200 280 285 174 218 229 204 5 338 305 269 238 249 192 208 237 196
177 178 172 179 169 179 192 246 253 234 231 234 203 215 217 135 258 51 203 203 239 215 233 199 223 192 169 246 261 228 181 202 191 122 225 269 259 186 250 244 197 215 201
182 162 156 161 170 179 200 230 251 246 253 259 225 206 198 194 180 184 213 193 222 206 220 228 274 175 188 221 216 221 175 235 231 216 204 225 244 219 242 251 237 280 263
60 110 128 135 148 175 198 209 231 244 246 244 270 30 321 239 177 199 198 191 206 199 223 234 243 237 216 238 290 286 178 202 212 193 227 253 236 257 243 258 275 274 280